This is the latest recevied weather packets stored in our database for station/object DL9NEE-10. If no packets are shown the sender has not sent any weather packets the latest 10 day(s).
| Time | Temp. | Humidity | Pressure | Rain* | Wind** | Luminosity | Snow |
|---|---|---|---|---|---|---|---|
| 1777500272 | 12.78° C | 32% | 1027.5 hPa | - | - | - | - |
| 1777499372 | 12.78° C | 32% | 1027.6 hPa | - | - | - | - |
| 1777498472 | 13.33° C | 31% | 1027.4 hPa | - | - | - | - |
| 1777497572 | 13.33° C | 31% | 1027.4 hPa | - | - | - | - |
| 1777496672 | 13.89° C | 31% | 1027.2 hPa | - | - | - | - |
| 1777495772 | 14.44° C | 30% | 1027 hPa | - | - | - | - |
| 1777494872 | 14.44° C | 30% | 1027.1 hPa | - | - | - | - |
| 1777493972 | 15° C | 30% | 1027 hPa | - | - | - | - |
| 1777493071 | 15.56° C | 30% | 1026.8 hPa | - | - | - | - |
| 1777492171 | 15.56° C | 29% | 1026.5 hPa | - | - | - | - |
| 1777491271 | 16.11° C | 29% | 1026.4 hPa | - | - | - | - |
| 1777490371 | 16.67° C | 29% | 1026 hPa | - | - | - | - |
| 1777489471 | 17.22° C | 29% | 1025.6 hPa | - | - | - | - |
| 1777488571 | 17.78° C | 29% | 1025.3 hPa | - | - | - | - |
| 1777487671 | 18.33° C | 28% | 1025.1 hPa | - | - | - | - |
| 1777486771 | 18.89° C | 28% | 1024.7 hPa | - | - | - | - |
| 1777485871 | 19.44° C | 28% | 1024.3 hPa | - | - | - | - |
| 1777484970 | 19.44° C | 28% | 1024.1 hPa | - | - | - | - |
| 1777484070 | 20° C | 28% | 1023.8 hPa | - | - | - | - |
| 1777483170 | 20.56° C | 27% | 1023.7 hPa | - | - | - | - |
| 1777482270 | 21.11° C | 27% | 1023.7 hPa | - | - | - | - |
| 1777481370 | 22.22° C | 26% | 1023.7 hPa | - | - | - | - |
| 1777480469 | 23.33° C | 26% | 1023.6 hPa | - | - | - | - |
| 1777479569 | 24.44° C | 24% | 1023.6 hPa | - | - | - | - |
| 1777478669 | 27.22° C | 24% | 1023.6 hPa | - | - | - | - |
* Rain since midnight (hover to see other rain measurements)
** Current wind speed in m/s (hover to see current wind gust speed)